Regional Weather Roundup
Issued by NWS

Home | Current Version | Previous Version | Text Only | Print | Product List | Glossary On
Versions: 1 2 3 4 5 6 7 8 9 10 11 12 13 14 15 16 17 18 19 20 21 22 23 24 25 26 27 28 29 30 31 32 33 34 35 36 37 38 39 40 41 42 43 44 45 46 47 48 49 50
046
ASUS43 KMKX 100200
RWRWI

WISCONSIN REGIONAL WEATHER ROUNDUP
NATIONAL WEATHER SERVICE MILWAUKEE/SULLIVAN WI
800 PM CST TUE FEB 09 2016

NOTE: "FAIR" INDICATES FEW OR NO CLOUDS BELOW 12,000 FEET WITH NO
SIGNIFICANT WEATHER AND/OR OBSTRUCTIONS TO VISIBILITY.

WIZ001-002-006>008-014>016-023>028-100300-
NORTHWEST WISCONSIN

CITY           SKY/WX    TMP DP  RH WIND       PRES   REMARKS
SUPERIOR ARPT  CLEAR      7  -4  58 N6        30.15S WCI  -3
ASHLAND        CLOUDY     9   2  73 N13       30.09S WCI  -7
HAYWARD        CLEAR      6  -4  63 N6        30.06R WCI  -4
SIREN          CLEAR      8  -6  54 N6        30.12R WCI  -3
CUMBERLAND     CLEAR      7  -8  51 N13       30.06R WCI  -9
RICE LAKE      CLEAR      9  -5  53 NW5       30.08R WCI   0
CHETEK         CLEAR      6  -5  59 N6        30.07R WCI  -4
LADYSMITH      CLOUDY    10   0  62 NW12G17   30.03F WCI  -5
EAU CLAIRE     NOT AVBL
MENOMONIE      CLEAR     12  -5  47 NW12G18   30.08S WCI  -2
NEW RICHMOND   CLEAR      8  -4  58 NW10      30.11S WCI  -6
OSCEOLA        CLEAR     10  -3  55 NW8       30.15S WCI  -2
$$

WIZ003>005-009-010-017-018-100300-
NORTH CENTRAL WISCONSIN

CITY           SKY/WX    TMP DP  RH WIND       PRES   REMARKS
MANITOWISH WTR LGT SNOW   8   3  83 N8        29.93F WCI  -5
ARBOR VITAE    LGT SNOW  11   7  82 N9        29.92F WCI  -1
WOODRUFF       LGT SNOW  11   7  82 N9        29.92F WCI  -1
RHINELANDER    LGT SNOW   8   2  76 NW8       29.91F WCI  -4
EAGLE RIVER    LGT SNOW   9   2  75 NW14      29.90S WCI  -8
LAND O LAKES   LGT SNOW   9   5  82 NW14G21   29.91S WCI  -7
PHILLIPS       LGT SNOW   8   1  73 N7G17     29.97F WCI  -4
TOMAHAWK       CLOUDY     8   1  72 NW14      29.95F WCI  -8
MEDFORD        CLOUDY     8   1  71 N10       29.96S WCI  -6
MERRILL        CLOUDY     9   1  68 N8        29.97S WCI  -3
$$

WIZ029-030-035-036-043>047-100300-
CENTRAL WISCONSIN

CITY           SKY/WX    TMP DP  RH WIND       PRES   REMARKS
WAUSAU         CLOUDY    11   0  61 NW12G22   29.95S WCI  -3
MOSINEE        CLOUDY     9   1  72 NW14G29   29.98R WCI  -8
MARSHFIELD     CLOUDY    10  -1  61 N14       29.97F WCI  -6
STEVENS POINT  CLOUDY    10  -1  63 NW16G22   29.98R WCI  -8
WAUPACA        CLOUDY    17   4  57 NW15G21   29.96R WCI   2
WAUTOMA        NOT AVBL
WISC RAPIDS    CLOUDY    11   0  61 N10       30.00S WCI  -3
CAMP DOUGLAS   NOT AVBL
$$

WIZ011>013-019>022-031-037>040-048>050-100300-
NORTHEAST WISCONSIN

CITY           SKY/WX    TMP DP  RH WIND       PRES   REMARKS
ANTIGO         CLOUDY     9   1  72 N15G23    29.91S HAZE    WCI  -8
SHAWANO        CLOUDY    16   3  57 NW10G20   29.95R WCI   3
OCONTO         CLOUDY    13   7  77 NW8       29.93S WCI   1
STURGEON BAY   CLOUDY    12   5  73 NW14G20   29.91R WCI  -3
GREEN BAY      LGT SNOW  14   7  73 N9        29.94R WCI   2
MANITOWOC      NOT AVBL
APPLETON       MOCLDY    16   1  53 NW20      29.91R WCI  -1
CLINTONVILLE   CLOUDY    16   1  53 NW10G20   29.95R WCI   3
OSHKOSH        CLOUDY    16   5  62 NW13      29.93R WCI   2
$$

WIZ032>034-041-042-053>061-100300-
SOUTHWEST WISCONSIN

CITY           SKY/WX    TMP DP  RH WIND       PRES   REMARKS
LA CROSSE      CLEAR      7  -4  60 NW8       30.07S WCI  -6
SPARTA         CLEAR      9   0  67 NW5       30.05F WCI   1
VIROQUA        CLEAR      7  -2  66 NW9       30.00S WCI  -6
BOSCOBEL       PTCLDY    12   0  58 VRB3      30.06S
PRAIRIE DU CHI CLEAR     12   0  57 NW5       30.07R WCI   4
PLATTEVILLE    CLEAR     10   0  62 NW8       30.01R WCI  -2
$$

WIZ056-057-062-063-064-067-068-100300-
SOUTH CENTRAL WISCONSIN

CITY           SKY/WX    TMP DP  RH WIND       PRES   REMARKS
REEDSBURG      MOCLDY    10  -1  60 NW9       30.01R WCI  -3
BARABOO/DELLS  CLOUDY    10  -2  58 NW14G20   29.99S WCI  -5
LONE ROCK      CLEAR     11  -2  56 NW12      30.04R WCI  -3
MINERAL POINT  CLEAR     12   0  57 NW9       29.99R WCI   0
MADISON        CLOUDY    12   0  58 NW13G18   29.98R WCI  -3
MIDDLETON      CLOUDY    14   1  57 NW15G23   29.98R WCI  -1
WATERTOWN      CLOUDY    14   6  69 NW14G23   29.94R WCI  -1
MONROE         CLOUDY    14   3  62 NW15G21   29.97R WCI  -1
JANESVILLE     CLOUDY    16   7  67 NW17G23   29.96S WCI   0
$$

WIZ051-052-058>065-066-070>072-100300-
SOUTHEAST WISCONSIN

CITY           SKY/WX    TMP DP  RH WIND       PRES   REMARKS
MILWAUKEE      LGT SNOW  16  10  77 NW10      29.92R WCI   4
WAUKESHA       LGT SNOW  12   9  85 NW17      29.92S WCI  -5
MILWAUKEE/TIMM LGT SNOW  16  10  79 W8        29.92R WCI   5
RACINE         FLURRIES  15   9  76 W10       29.93R WCI   2
BURLINGTON     FLURRIES  13   7  78 NW12      29.94R WCI  -1
KENOSHA        CLOUDY    15   8  73 NW16G22   29.92S WCI  -1
FOND DU LAC    CLOUDY    16   6  65 N14       29.93R WCI   2
SHEBOYGAN      LGT SNOW  15   8  73 N15       29.90S WCI   0
WEST BEND      LGT SNOW  18  12  79 NW12G18   29.90R WCI   5
JUNEAU         CLOUDY    13   5  70 NW15G21   29.94R WCI  -3
$$

LSZ147-162-100300-
LAKE SUPERIOR

STATION/POSITION TIME  TEMP    WIND        PRES    WAVE
                       AIR SEA DIR/SP/G            HT/PER
                 (UTC) (F)     (DEG/KT/KT) (MB)    (FT/S)
DEVILS ISLAND    0100    9     340/ 23/ 26 1020.9R
PORT WING        0100   11     340/ 15/ 20 1020.0
SAXON HARBOR     0100   12                 1017.9S
$$

LMZ867-665-643>646-100300-
LAKE MICHIGAN

STATION/POSITION TIME  TEMP    WIND        PRES    WAVE
                       AIR SEA DIR/SP/G            HT/PER
                 (UTC) (F)     (DEG/KT/KT) (MB)    (FT/S)
CHAMBERS ISLAND  0140   14     300/ 15/ 25 1012.2S
ALGOMA LAKESHORE 0111          320/ 16/ 26   N/A
KEWAUNEE LAKESHO 0100   15     330/ 14/ 18 1011.5R
SHEBOYGAN LAKESH 0100   17     320/ 11/ 13 1013.9R
PORT WASHINGTON  0100   18     310/  8/ 13 1013.9
MILWAUKEE LAKESH 0110   17     290/ 10/ 13   N/A
KENOSHA   LAKESH 0100   16     300/ 13/ 16 1013.2R
$$

TC  - TEMPERATURE IN CELSIUS
VSB - VISIBILITY IN STATUTE MILES
WCI - WIND CHILL INDEX
HX  - HEAT INDEX





USA.gov is the U.S. government's official web portal to all federal, state and local government web resources and services.